Bedminster, NJ

4:36 AM EST on January 23, 2017 (GMT -0500)
Somerset

Weather History for KSMQ - March, 2013

Change the Weather History Date:

Friday, March 8, 2013

  Actual Average Record
Temperature  
Mean Temperature 38 °F -  
Max Temperature 45 °F 47 °F 73 °F (2016)
Min Temperature 30 °F 25 °F 3 °F (2007)
Degree Days  
Heating Degree Days 28    
Moisture  
Dew Point 29 °F    
Average Humidity 80    
Maximum Humidity 93    
Minimum Humidity 53    
Precipitation  
Precipitation 0.14 in - - ()
Sea Level Pressure  
Sea Level Pressure 30.06 in    
Wind  
Wind Speed 8 mph (NNW)    
Max Wind Speed 13 mph    
Max Gust Speed 23 mph    
Visibility 4 miles    
Events Fog , Rain , Snow    
Averages and records for this station are not official NWS values.
T = Trace of Precipitation, MM = Missing Value Source: NWS Daily Summary

Daily Weather History Graph

Daily Weather History Graph

Search for Another Location

Airport or City:

Trip Planner

Search our weather history database for the weather conditions in past years. The results will help you decide how hot, cold, wet, or windy it might be!

Date:

Astronomy

Mar. 08, 2013 Rise Set
Actual Time 6:21 AM EST 5:58 PM EST
Civil Twilight 5:53 AM EST 6:25 PM EST
Nautical Twilight 5:22 AM EST 6:57 PM EST
Astronomical Twilight 4:50 AM EST 7:28 PM EST
Moon 4:04 AM EST (3/8) 2:49 PM EST (3/8)
Length of Visible Light 12h 31m
Length of Day
11h 36m
Waning Crescent, 12% of the Moon is Illuminated
Mar 8
Waning Crescent
Mar 11
New
Mar 19
First Quarter
Mar 27
Full
Apr 3
Last Quarter

Hourly Weather History & Observations

Time (EST) Temp. Windchill Dew Point Humidity Pressure Visibility Wind Dir Wind Speed Gust Speed Precip Events Conditions
12:15 AM 33.8 °F 27.7 °F 30.2 °F 87% 30.07 in 3.0 mi NW 6.9 mph - 0.00 in Snow Light Snow
12:31 AM 33.8 °F 28.6 °F 30.2 °F 87% 30.06 in 3.0 mi NW 5.8 mph - 0.00 in Snow Light Snow
12:49 AM 33.8 °F 30.8 °F 30.2 °F 87% 30.06 in 2.5 mi NW 3.5 mph - 0.00 in Snow Light Snow
12:53 AM 33.1 °F 28.7 °F 30.9 °F 92% 30.07 in 2.5 mi WNW 4.6 mph - 0.00 in Snow Light Snow
1:09 AM 33.8 °F 27.7 °F 30.2 °F 87% 30.06 in 3.0 mi NW 6.9 mph - 0.00 in Snow Light Snow
1:31 AM 33.8 °F 29.6 °F 30.2 °F 87% 30.06 in 2.5 mi NW 4.6 mph - 0.00 in Snow Light Snow
1:53 AM 33.1 °F 26.1 °F 30.9 °F 92% 30.06 in 2.5 mi NNW 8.1 mph - 0.00 in Snow Light Snow
2:46 AM 32.0 °F 24.2 °F 28.4 °F 87% 30.03 in 3.0 mi NNW 9.2 mph - 0.01 in Snow Light Snow
2:53 AM 32.0 °F 24.8 °F 28.9 °F 88% 30.04 in 3.0 mi NW 8.1 mph - 0.01 in Snow Light Snow
3:05 AM 32.0 °F 24.2 °F 28.4 °F 87% 30.03 in 2.0 mi NW 9.2 mph - 0.00 in Snow Light Snow
3:21 AM 32.0 °F 24.8 °F 28.4 °F 87% 30.02 in 3.0 mi NNW 8.1 mph - 0.00 in Snow Light Snow
3:53 AM 32.0 °F 24.8 °F 28.9 °F 88% 30.03 in 4.0 mi NNW 8.1 mph - 0.00 in Snow Light Snow
4:11 AM 32.0 °F 25.6 °F 28.4 °F 87% 30.02 in 2.0 mi NNW 6.9 mph - 0.00 in Snow Light Snow
4:20 AM 32.0 °F 24.2 °F 28.4 °F 87% 30.02 in 1.8 mi NNW 9.2 mph - 0.00 in Snow Light Snow
4:31 AM 32.0 °F 24.8 °F 28.4 °F 87% 30.02 in 1.8 mi NNW 8.1 mph - 0.00 in Snow Light Snow
4:34 AM 32.0 °F 25.6 °F 28.4 °F 87% 30.02 in 2.0 mi NW 6.9 mph - 0.00 in Snow Light Snow
4:46 AM 32.0 °F 25.6 °F 28.4 °F 87% 30.02 in 3.0 mi NNW 6.9 mph - 0.00 in Snow Light Snow
4:53 AM 32.0 °F 25.6 °F 28.9 °F 88% 30.03 in 2.5 mi NNW 6.9 mph - 0.00 in Snow Light Snow
5:07 AM 30.2 °F 23.4 °F 28.4 °F 93% 30.02 in 1.5 mi NNW 6.9 mph - 0.00 in Snow Light Snow
5:19 AM 30.2 °F 21.9 °F 28.4 °F 93% 30.02 in 2.0 mi NNW 9.2 mph - 0.00 in Snow Light Snow
5:34 AM 30.2 °F 22.6 °F 28.4 °F 93% 30.02 in 1.5 mi North 8.1 mph - 0.00 in Snow Light Snow
5:53 AM 30.9 °F 22.2 °F 28.0 °F 89% 30.03 in 1.8 mi NNW 10.4 mph - 0.00 in Snow Light Snow
6:30 AM 30.2 °F 21.3 °F 28.4 °F 93% 30.02 in 1.2 mi NNW 10.4 mph - 0.00 in Snow Light Snow
6:53 AM 30.9 °F 22.8 °F 28.0 °F 89% 30.04 in 0.5 mi NNW 9.2 mph - 0.00 in Fog , Snow Snow
7:21 AM 30.2 °F 23.4 °F 28.4 °F 93% 30.03 in 0.8 mi NNW 6.9 mph - 0.00 in Snow Light Snow
7:48 AM 30.2 °F 22.6 °F 28.4 °F 93% 30.03 in 1.8 mi NNW 8.1 mph - 0.00 in Snow Light Snow
7:53 AM 30.9 °F 21.7 °F 28.0 °F 89% 30.04 in 1.8 mi NNW 11.5 mph - 0.00 in Snow Light Snow
8:04 AM 30.2 °F 21.3 °F 28.4 °F 93% 30.04 in 3.0 mi NNW 10.4 mph - 0.00 in Snow Light Snow
8:12 AM 32.0 °F 24.2 °F 26.6 °F 80% 30.03 in 4.0 mi NNW 9.2 mph - 0.00 in Snow Light Snow
8:50 AM 32.0 °F 23.0 °F 26.6 °F 80% 30.03 in 2.5 mi North 11.5 mph 17.3 mph 0.00 in Snow Light Snow
8:53 AM 32.0 °F 23.0 °F 27.0 °F 82% 30.04 in 2.5 mi NNW 11.5 mph 17.3 mph 0.00 in Snow Light Snow
9:23 AM 33.8 °F 27.0 °F 26.6 °F 75% 30.04 in 3.0 mi NNW 8.1 mph - 0.00 in Snow Light Snow
9:31 AM 33.8 °F 27.0 °F 28.4 °F 81% 30.04 in 2.0 mi NNW 8.1 mph 17.3 mph 0.00 in Snow Light Snow
9:39 AM 33.8 °F 25.8 °F 28.4 °F 81% 30.05 in 1.8 mi North 10.4 mph 18.4 mph 0.00 in Snow Light Snow
9:53 AM 33.1 °F 25.5 °F 28.0 °F 82% 30.06 in 1.5 mi NNW 9.2 mph - 0.00 in Snow Light Snow
10:53 AM 33.1 °F 24.9 °F 28.9 °F 85% 30.07 in 1.0 mi NNW 10.4 mph 18.4 mph 0.03 in Snow Light Snow
11:53 AM 34.0 °F 25.0 °F 28.9 °F 82% 30.07 in 1.5 mi NNW 12.7 mph - 0.04 in Snow Light Snow
12:05 PM 35.6 °F 27.5 °F 28.4 °F 75% 30.06 in 2.5 mi NNW 11.5 mph 21.9 mph 0.01 in Snow Light Snow
12:30 PM 35.6 °F 27.5 °F 28.4 °F 75% 30.05 in 3.0 mi NNW 11.5 mph 18.4 mph 0.02 in Snow Light Snow
12:38 PM 35.6 °F 27.5 °F 30.2 °F 81% 30.05 in 1.8 mi NNW 11.5 mph 18.4 mph 0.03 in Snow Light Snow
12:53 PM 35.1 °F 27.4 °F 30.0 °F 82% 30.05 in 2.0 mi NNW 10.4 mph 17.3 mph 0.04 in Snow Light Snow
1:04 PM 35.6 °F 27.1 °F 30.2 °F 81% 30.04 in 4.0 mi North 12.7 mph - 0.01 in Snow Light Snow
1:48 PM 37.4 °F 31.4 °F 30.2 °F 75% 30.03 in 10.0 mi North 8.1 mph 17.3 mph 0.02 in   Overcast
1:53 PM 37.9 °F 32.7 °F 30.0 °F 73% 30.04 in 10.0 mi NNW 6.9 mph - 0.02 in Rain Light Rain
2:06 PM 39.2 °F 32.5 °F 30.2 °F 70% 30.03 in 10.0 mi North 10.4 mph 16.1 mph 0.00 in   Overcast
2:33 PM 39.2 °F 32.5 °F 30.2 °F 70% 30.03 in 10.0 mi North 10.4 mph 23.0 mph 0.00 in Rain Light Rain
2:44 PM 39.2 °F 33.0 °F 30.2 °F 70% 30.03 in 10.0 mi North 9.2 mph 19.6 mph 0.00 in   Overcast
2:53 PM 39.9 °F 32.9 °F 32.0 °F 73% 30.05 in 10.0 mi North 11.5 mph 18.4 mph 0.00 in   Overcast
3:53 PM 43.0 °F 36.4 °F 33.1 °F 68% 30.06 in 10.0 mi North 12.7 mph 20.7 mph N/A   Overcast
4:53 PM 45.0 °F 38.9 °F 32.0 °F 60% 30.07 in 10.0 mi NW 12.7 mph 19.6 mph N/A   Overcast
5:53 PM 44.1 °F 37.7 °F 30.0 °F 58% 30.11 in 10.0 mi NNW 12.7 mph 19.6 mph N/A   Overcast
6:53 PM 43.0 °F 36.8 °F 28.0 °F 56% 30.14 in 10.0 mi NNW 11.5 mph 18.4 mph N/A   Mostly Cloudy
7:53 PM 42.1 °F 36.6 °F 27.0 °F 55% 30.17 in 10.0 mi North 9.2 mph 19.6 mph N/A   Clear
8:53 PM 41.0 °F 36.4 °F 25.0 °F 53% 30.19 in 10.0 mi Variable 6.9 mph - N/A   Clear
9:53 PM 39.9 °F 35.1 °F 25.0 °F 55% 30.21 in 10.0 mi North 6.9 mph - N/A   Mostly Cloudy
10:53 PM 37.9 °F 32.1 °F 24.1 °F 57% 30.21 in 10.0 mi NNW 8.1 mph - N/A   Clear
11:53 PM 37.0 °F 31.0 °F 24.1 °F 59% 30.21 in 10.0 mi NNW 8.1 mph - N/A   Clear